SKYSAT-C10

Last updated on Sun Nov 16 2025 00:03:21 GMT+0000 (Coordinated Universal Time)

1 42988U 17068B 25319.29410862 .00014128 00000+0 46308-3 0 9994 2 42988 97.4238 90.0818 0004399 163.0850 197.0538 15.31739075449595
UTC large
Height (km)
Speed (km/s)
/
Latitude / Longitude
Inclination (degrees)
Orbital Period (minutes)
Azimuth
Elevation
Range (km)
Doppler Factor

Next 0 passes for location: London (51.5072 / 0.1276)

Sorry there are no passes over London.